Tracking 23885 objects as of 28-Nov-2021
HD Live streaming from Space Station
objects crossing your sky now

SPACEBEE-107

Track SPACEBEE-107 now!
10-day predictions


NORAD ID: 48894
Int'l Code: 2021-059R
Perigee: 527.4 km
Apogee: 542.2 km
Inclination: 97.5 °
Period: 95.2 minutes
Semi major axis: 6905 km
RCS: Unknown
Launch date: June 30, 2021
Source: United States (US)
Launch site: AIR FORCE EASTERN TEST RANGE (AFETR)
aabbcc
Your satellite tracking list
Your tracking list is empty




NASA's NSSDC Master Catalog

Two Line Element Set (TLE):
1 48894U 21059R   21331.78418781  .00003107  00000-0  18047-3 0  9998
2 48894  97.5341  98.4182 0010698  83.4677 276.7771 15.12803793 23422
Source of the keplerian elements: AFSPC